{"data":{"norad_id":66627,"epoch":"2026-09-20T09:11:21.006528Z","epoch_age_seconds":96587,"freshness":"FRESH","line1":"1 66627U 25271L   26263.38288202  .00011458  00000+0  34962-3 0  9991","line2":"2 66627  53.1586 314.2921 0001090  84.3621 275.7506 15.34409977 47353","mean_motion":15.34409977,"eccentricity":0.000109,"inclination_deg":53.1586,"raan_deg":314.2921,"arg_perigee_deg":84.3621,"mean_anomaly_deg":275.7506,"bstar":0.00034962,"rev_number":4735,"period_min":93.847147866922,"perigee_km":461.92793826728,"apogee_km":463.41923497517,"semimajor_km":6840.8105866212,"source":"CELESTRAK","updated_at":"2026-09-21T09:00:35.984010Z"}}